Change the Weather History Date:

Tuesday, December 11, 2012

  Actual Average Record
Temperature  
Mean Temperature 25 °F 27 °F  
Max Temperature 39 °F 38 °F 68 °F (1929)
Min Temperature 10 °F 17 °F -7 °F (2013)
Degree Days  
Heating Degree Days 40 38  
Month to date heating degree days 312 395  
Since 1 July heating degree days 1356 1604  
Cooling Degree Days 0 0  
Month to date cooling degree days 0 0  
Year to date cooling degree days 1513 1289  
Moisture  
Dew Point 9 °F    
Average Humidity 50    
Maximum Humidity 67    
Minimum Humidity 33    
Precipitation  
Precipitation 0.00 in 0.02 in 0.12 in (1964)
Month to date precipitation 0.06 0.18  
Year to date precipitation 2.72 8.38  
Sea Level Pressure  
Sea Level Pressure 30.15 in    
Wind  
Wind Speed 2 mph (SE)    
Max Wind Speed 10 mph    
Max Gust Speed 13 mph    
Visibility 10 miles    
Events      
T = Trace of Precipitation, MM = Missing Value Source: NWS Daily Summary

Daily Weather History Graph

Daily Weather History Graph

Search for Another Location

Airport or City:

Trip Planner

Search our weather history database for the weather conditions in past years. The results will help you decide how hot, cold, wet, or windy it might be!

Date:

Astronomy

Dec. 11, 2012 Rise Set
Actual Time 7:27 AM MST 4:57 PM MST
Civil Twilight 6:57 AM MST 5:27 PM MST
Nautical Twilight 6:24 AM MST 6:00 PM MST
Astronomical Twilight 5:52 AM MST 6:33 PM MST
Moon 5:26 AM MST (12/11) 3:39 PM MST (12/11)
Length of Visible Light 10h 29m
Length of Day
9h 30m
Waning Crescent, 4% of the Moon is Illuminated
Dec 11
Waning Crescent
Dec 13
New
Dec 19
First Quarter
Dec 28
Full
Jan 4
Last Quarter

Hourly Weather History & Observations

Time (MST) Temp. Windchill Dew Point Humidity Pressure Visibility Wind Dir Wind Speed Gust Speed Precip Events Conditions
12:53 AM 19.0 °F 13.9 °F 3.0 °F 50% 30.19 in 10.0 mi SSE 3.5 mph - N/A   Clear
1:53 AM 19.0 °F - 3.0 °F 50% 30.18 in 10.0 mi Calm Calm - N/A   Clear
2:53 AM 19.0 °F - 5.0 °F 54% 30.18 in 10.0 mi Calm Calm - N/A   Clear
3:53 AM 17.1 °F - 6.1 °F 62% 30.19 in 10.0 mi Calm Calm - N/A   Clear
4:53 AM 17.1 °F - 7.0 °F 65% 30.19 in 10.0 mi Calm Calm - N/A   Clear
5:53 AM 12.9 °F - 3.9 °F 67% 30.22 in 10.0 mi Calm Calm - N/A   Scattered Clouds
6:53 AM 15.1 °F - 5.0 °F 64% 30.22 in 10.0 mi Calm Calm - N/A   Clear
7:53 AM 15.1 °F - 5.0 °F 64% 30.25 in 10.0 mi Calm Calm - N/A   Clear
8:53 AM 21.0 °F 14.6 °F 9.0 °F 60% 30.24 in 10.0 mi SSE 4.6 mph - N/A   Clear
9:53 AM 27.0 °F 18.7 °F 12.0 °F 53% 30.24 in 10.0 mi SE 8.1 mph - N/A   Clear
10:53 AM 30.9 °F 24.3 °F 12.0 °F 46% 30.22 in 10.0 mi ESE 6.9 mph - N/A   Clear
11:53 AM 34.0 °F 31.0 °F 12.0 °F 40% 30.20 in 10.0 mi East 3.5 mph - N/A   Partly Cloudy
12:53 PM 36.0 °F 31.1 °F 12.0 °F 37% 30.16 in 10.0 mi East 5.8 mph - N/A   Clear
1:53 PM 37.0 °F - 12.9 °F 37% 30.12 in 10.0 mi Calm Calm - N/A   Clear
2:53 PM 39.0 °F 35.7 °F 12.9 °F 34% 30.08 in 10.0 mi East 4.6 mph - N/A   Clear
3:53 PM 39.0 °F 35.7 °F 12.9 °F 34% 30.08 in 10.0 mi ESE 4.6 mph - N/A   Clear
4:53 PM 37.0 °F - 12.0 °F 36% 30.07 in 10.0 mi Calm Calm - N/A   Clear
5:53 PM 32.0 °F - 10.0 °F 40% 30.09 in 10.0 mi Calm Calm - N/A   Clear
6:53 PM 28.0 °F - 10.0 °F 47% 30.11 in 10.0 mi Calm Calm - N/A   Clear
7:53 PM 24.1 °F 19.7 °F 7.0 °F 48% 30.12 in 10.0 mi WSW 3.5 mph - N/A   Clear
8:53 PM 27.0 °F - 10.0 °F 49% 30.11 in 10.0 mi Calm Calm - N/A   Clear
9:53 PM 26.1 °F - 10.0 °F 51% 30.07 in 10.0 mi Calm Calm - N/A   Clear
10:53 PM 23.0 °F - 8.6 °F 54% 29.99 in 10.0 mi Calm Calm - N/A   Clear
11:53 PM 26.1 °F - 12.0 °F 55% 30.06 in 10.0 mi Calm Calm - N/A   Clear